map of JOI home
Great Circle Mapper logo
JOI - Airport
Location
City:  Joinville, Santa Catarina, Brazil
Name:Lauro Carneiro de Loyola
ICAO / IATA:SBJV / JOI

Details
Type:Airport (Aerodrome, Airfield)
Latitude:2613'28"S (-26.224452)
Longitude:4847'51"W (-48.797363)
Datum:WGS 1984
Elevation:15 ft (5 m)
Variation:19.31W (WMM2015 magnetic declination)
-0.14 annual change
Runways:1
Longest:5381 × 148 ft (1640 × 45 m), paved

Time
Time Zone:UTC-3 (DST-2)
Local Time:

Weather
METAR:SBJV 271800Z 09004KT 9999 FEW040 SCT100 24/18 Q1013
TAF:SBJV 271600Z 2718/2806 08008KT 9999 SCT045 TX26/2717Z TN19/2805Z
BECMG 2800/2802 26005KT SCT010 PROB40 2804/2806 5000 BR BKN005
RMK PER

Related Locations
Nearby:
Farthest:MMD: 12443 mi / 20025 km
Minami Daito Jima, Okinawa, JP

Find:

   beyond  
but within

Other Information
Maps:
NOTAMs:
Links:
Sources:

  
flag of Brazil
flag of Santa Catarina
  

Sectional Chart

Flight Planning
at skyvector.com

Satellite Image

Google Maps Satellite view

 

Copyright © 2004-2015 Karl L. Swartz. All rights reserved.
The Great Circle Mapper name and logo are trademarks of the Great Circle Mapper.
All other trademarks mentioned herein belong to their respective owners.
Please see credits for attibutions and further copyright information.

  Follow gcmap on Facebook Follow gcmap on Twitter Follow gcmap on Google+

hCard Microformat

Geo Microformat